Regional Weather Roundup
Issued by NWS Newport/Morehead, NC

Current Version | Previous Version | Text Only | Print | Product List | Glossary Off
Versions: 1 2 3 4 5 6 7 8 9 10 11 12 13 14 15 16 17 18 19 20 21 22 23 24 25 26 27 28 29 30 31 32 33 34 35 36 37 38 39 40 41 42 43 44 45 46 47 48 49 50
000 ASUS42 KMHX 030813 RWRMHX WEATHER ROUNDUP FOR EASTERN NORTH CAROLINA NATIONAL WEATHER SERVICE NEWPORT/MOREHEAD CITY NC 400 AM EDT THU SEP 03 2015 NOTE: "FAIR" INDICATES FEW OR NO CLOUDS BELOW 12,000 FEET WITH NO SIGNIFICANT WEATHER AND/OR OBSTRUCTIONS TO VISIBILITY NCZ015>017-031-032-045>047-102-103-030900- NORTH COAST CITY SKY/WX TMP DP RH WIND PRES REMARKS EDENTON PTCLDY 69 68 95 CALM 29.93S FOG ELIZABETH CITY LGT RAIN 71 69 93 W8 29.93S KITTY HAWK CLOUDY 75 70 83 W5 29.91S MANTEO CLOUDY 73 69 87 CALM 29.93R $$ NCZ045>047-081-094-103-104-030900- CENTRAL COAST CITY SKY/WX TMP DP RH WIND PRES REMARKS FRISCO LGT RAIN 76 73 91 NW6 29.92F SWANQUARTER N/A 73 N/A N/A NW3 29.88S $$ NCZ095-097-098-100-101-030900- SOUTHERN COAST CITY SKY/WX TMP DP RH WIND PRES REMARKS BEAUFORT PTCLDY 73 69 87 N3 29.93F CEDAR ISLAND N/A 73 N/A N/A CALM 29.94F JACKSONVILLE CLOUDY 75 67 76 N10 29.96S PINEY ISLAND PTSUNNY N/A N/A N/A S3 29.92F WILMINGTON PTCLDY 75 73 93 N6 29.95R $$ NCZ011>013-027>030-043-044-078>080-089-090>093-098-030900- COASTAL PLAIN CITY SKY/WX TMP DP RH WIND PRES REMARKS AHOSKIE FOG 67 66 97 CALM 29.95S VSB 1/2 CLINTON LGT RAIN 73 71 92 E3 29.96F ELIZABETHTOWN CLOUDY 76 74 95 CALM 29.95F GOLDSBORO MOCLDY 70 69 98 S3 29.91F GREENVILLE MOCLDY 70 70 100 CALM 29.96F FOG HAVELOCK MOCLDY 73 67 81 W13G20 29.97R KENANSVILLE LGT RAIN 70 69 96 CALM 29.96F KINSTON CLOUDY 69 68 97 CALM 29.94F NEW BERN TSTM 71 69 93 S7 29.94F FOG RICHLANDS CLOUDY 72 64 78 N6 29.98F ROCKY MOUNT FOG 69 68 96 CALM 29.94F VSB 1/4 WASHINGTON PTCLDY 69 68 96 SW3 29.94F WHITEVILLE MOCLDY 74 72 92 CALM 29.94S $$ AMZ130-135-150-152-154-156-158-170-250-252-270-ANZ085-086-088-633-658-670-030900- MARINE OBSERVATIONS STATION/POSITION TIME TEMP WIND PRES WAVE SWELL AIR SEA DIR/SP/G HT/PER HT/PER (UTC) (F) (DEG/KT/KT) (MB) (FT/S) (FT/S) CHESAPEAKE LIGHT 0800 76 300/ 12/ 12 1013.6 64 E VA BEACH 0750 78 79 280/ 10/ 12 1012.5 2/14 2/14 DUCK 0700 76 80 290/ 11/ 13 1012.3 2 E DUCK 0711 81 N/A 1/13 OREGON INLET 0700 75 84 240/ 4/ 7 1012.8 13E OREGON INLT 0800 80 N/A 2/13 HATTERAS CG 0700 78 83 300/ 9/ 13 1013.5 DIAMOND BUOY 0750 80 85 310/ 12/ 16 1013.3 2/13 2/13 CAPE LOOKOUT 0800 74 360/ 4/ 5 1013.2 BEAUFORT LAB 0700 75 81 360/ 8/ 14 1013.6 30 SE NEW RVR IN 0708 81 82 310/ 10/ 14 1014.5 30 SE NEW RVR IN 0725 82 N/A 2/ 9 27 SE WRIGHTSVLE 0700 78 82 270/ 10/ 10 N/A 5 SE WRIGHTSVLE 0708 81 82 280/ 12/ 16 1013.8 225 S CAPE HAT 0750 82 83 300/ 8/ 10 1013.6 2/ 9 2/ 9 41 SE CHARLESTON 0750 82 84 270/ 4/ 4 1014.0 2/ 9 2/ 9 $$

USA.gov is the U.S. government's official web portal to all federal, state and local government web resources and services.